Regional Weather Roundup
Issued by NWS Upton, NY

Current Version | Previous Version | Graphics & Text | Print | Product List | Glossary Off
Versions: 1 2 3 4 5 6 7 8 9 10 11 12 13 14 15 16 17 18 19 20 21 22 23 24 25 26 27

000
ASUS41 KOKX 241305
RWROKX

REGIONAL WEATHER ROUNDUP
NATIONAL WEATHER SERVICE NEW YORK NY
900 AM EDT FRI OCT 24 2014

NOTE: "FAIR" INDICATES FEW OR NO CLOUDS BELOW 12,000 FEET WITH NO
SIGNIFICANT WEATHER AND/OR OBSTRUCTIONS TO VISIBILITY.

NYZ071-072-176-178-NJZ106-104-241400-
NEW YORK CITY METRO AREA


CITY           SKY/WX    TMP DP  RH WIND       PRES   REMARKS
CENTRAL PARK   PTSUNNY   53  43  68 NW7       29.85R
LAGUARDIA APRT CLOUDY    53  44  71 NW14      29.82R
KENNEDY INTL   PTSUNNY   53  43  68 NW15      29.82R
NEWARK/LIBERTY PTSUNNY   53  43  68 NW16G22   29.83R
BRNX BOT. GARD   N/A     52  43  71 NW7       29.82R
TETERBORO      CLOUDY    54  43  66 NW13      29.81R
$$

NYZ177-179-078>081-241400-
LONG ISLAND NEW YORK

CITY           SKY/WX    TMP DP  RH WIND       PRES   REMARKS
FARMINGDALE    LGT RAIN  51  45  79 NW7       29.80S
ISLIP          LGT RAIN  50  46  86 NW12      29.77S
SHIRLEY        LGT RAIN  50  46  86 NW12      29.78R
WESTHAMPTON    LGT RAIN  51  47  86 NW10      29.78R
MONTAUK POINT    N/A     52  47  83 NW12G21   29.75R
$$

NYZ052-065-067-241400-
HUDSON VALLEY

CITY           SKY/WX    TMP DP  RH WIND       PRES   REMARKS
WHITE PLAINS   CLOUDY    49  44  83 NW10      29.80S
NEWBURGH       CLOUDY    48  46  93 VRB5      29.83S
MONTGOMERY     CLOUDY    50  42  74 NW8       29.82R
POUGHKEEPSIE   CLOUDY    50  45  83 N3        29.82S
ALBANY         DRIZZLE   46  43  89 N7        29.85S FOG
$$

NJZ001-105-106-008-010-013-015-019>022-104-241400-
NEW JERSEY

CITY           SKY/WX    TMP DP  RH WIND       PRES   REMARKS
NEWARK/LIBERTY PTSUNNY   53  43  68 NW16G22   29.83R
TETERBORO      CLOUDY    54  43  66 NW13      29.81R
CALDWELL       CLOUDY    52  41  66 NW7G20    29.84R
MORRISTOWN     CLOUDY    54  43  66 N8G16     29.85R
SOMERVILLE     CLOUDY    54  42  64 NW8G20    29.83R
SUSSEX         CLOUDY    53  42  66 VRB7G20   29.86R
ANDOVER          N/A     50  41  71 N13G26    29.85R
TRENTON        CLOUDY    54  43  66 N15       29.84R
MILLVILLE      CLOUDY    57  47  69 NW9       29.87R
ATLANTIC CITY  SUNNY     54  47  77 W9        29.85R
WRIGHTSTOWN    CLOUDY    55  46  71 NW12G17   29.82S
TOMS RIVER     CLOUDY    54  46  76 CALM      29.83S
BELMAR         PTSUNNY   54  43  66 NW16G22   29.82S
$$

PAZ047>061-062-071-241400-
EASTERN PENNSYLVANIA

CITY           SKY/WX    TMP DP  RH WIND       PRES   REMARKS
PHILADELPHIA   MOSUNNY   58  44  60 NW14      29.87R
ALLENTOWN      MOSUNNY   54  42  64 NW15G29   29.88R
SCRANTON       CLOUDY    51  42  71 NW9       29.91S
$$

CTZ002-004>006-009-010-012-RIZ004-006-007-MAZ004-011-015-241400-
SOUTHERN NEW ENGLAND
 IN CT

CITY           SKY/WX    TMP DP  RH WIND       PRES   REMARKS
BRADLEY INTL   CLOUDY    49  44  83 NW8       29.76R
HARTFORD       LGT RAIN  49  45  86 NW7       29.77R
DANBURY        CLOUDY    48  42  80 N10       29.81S
WTRBRY/OXFORD  DRIZZLE   46  41  81 NW5       29.78S FOG
BRIDGEPORT     LGT RAIN  50  46  86 NW7       29.79R
MERIDEN        LGT RAIN  49  45  86 NW8       29.77S
NEW HAVEN      LGT RAIN  51  46  83 NW5       29.78S
CHESTER        LGT RAIN  46  45  93 NW13G21   29.76S
GROTON         LGT RAIN  48  46  93 NW9       29.74S
WILLIMANTIC    LGT RAIN  49  45  86 NW9       29.75R

 IN RI

CITY           SKY/WX    TMP DP  RH WIND       PRES   REMARKS
PROVIDENCE     LGT RAIN  51  47  86 NW9       29.71R
BLOCK ISLAND   CLOUDY    52  45  76 NW12      29.71S
WESTERLY       LGT RAIN  50  47  89 NW8       29.73S

 IN MA

CITY           SKY/WX    TMP DP  RH WIND       PRES   REMARKS
BOSTON         CLOUDY    49  49 100 NW12G18   29.70S FOG
WORCESTER      CLOUDY    44  42  93 NW15      29.72R
WESTFIELD      CLOUDY    49  43  80 N8        29.76R
PROVINCETOWN   CLOUDY    50  -2  11 N22G28    29.66R
NANTUCKET      CLOUDY    53  49  86 NW20G32   29.63R
$$

ANZ330-335-338-340-345-350-353-355-241400-
COASTAL MARINE OBSERVATIONS


STATION/POSITION TIME  SKY/WX   TEMP    WIND        PRES    VSBY  WAVE
                                AIR SEA DIR/SP/G                  HT/PER
                 (UTC)          (F)     (DEG/KT/KT) (MB)    (MI)  (FT/S)
NY HARB ENTRANCE NOT AVBL
4S FIRE IS       1300               63                N/A           3/10
20S FIRE ISLAND  1300            54 63  330/ 19/ 23 1008.2          5/ 5
23SW MTP         1300                                 N/A           5/ 4
HUDSON CANYON    1300            57 66  330/ 21/ 25 1007.4          8/ 7
EXECUTION ROCKS  1300            53 62  310/ 10/ 12   N/A
WESTERN LI SOUND 1300            52     330/ 10/ 14   N/A           0
CENTRAL LI SOUND 1300            51 63  330/ 14/ 19   N/A           2/ 4
EASTERN LI SOUND 1200            51 63  320/ 14/ 19   N/A
ROBBINS REEF     1300            53     320/ 14/ 17 1008.7
$$


>>>>>>>>>>>>>>>>>>>>>>>>>>>> KEY <<<<<<<<<<<<<<<<<<<<<<<<<<<
>                                                          <
>     SKY/WX - SKY CONDITION/PRESENT WEATHER               <
>     TMP    - TEMPERATURE IN FAHRENHEIT                   <
>     DP     - DEWPOINT IN FAHRENHEIT                      <
>     RH     - RELATIVE HUMIDITY IN PERCENT                <
>     WIND   - DIRECTION AND SPEED IN MPH                  <
>     PRES   - MEAN SEA LEVEL PRESSURE IN INCHES OF HG     <
>     WCI    - WIND CHILL INDEX                            <
>     VSB    - VISIBILITY IN MILES                         <
>     HX     - HEAT INDEX                                  <
>     TC     - TEMPERATURE IN CELSIUS                      <
>     VRB    - VARIABLE WIND DIRECTION                     <
>                                                          <
>>>>>>>>>>>>>>>>>>>>>>>>>>>> KEY <<<<<<<<<<<<<<<<<<<<<<<<<<<





USA.gov is the U.S. government's official web portal to all federal, state and local government web resources and services.